Location: Newark
(40.4167°S, 176.3000°E)
Time: 22:00:17
(UTC+00:00)

Envisat - Visible Passes

Search period start: 15 September 2019 00:00
Search period end: 25 September 2019 00:00
Orbit: 764 x 766 km, 98.1° (Epoch: 15 September)

Date Brightness Start Highest point End Pass type
(mag) Time Alt. Az. Time Alt. Az. Time Alt. Az.
15 Sep 3.0 07:05:17 10° SSE 07:10:25 65° E 07:15:29 10° N visible
15 Sep 5.8 08:45:49 10° SSW 08:48:52 16° WSW 08:51:55 10° W visible
15 Sep 6.5 16:45:40 10° ESE 16:46:07 10° ESE 16:46:35 10° SE visible
16 Sep 3.8 06:29:04 10° SE 06:33:30 29° E 06:37:53 10° NNE visible
16 Sep 4.7 08:07:55 10° S 08:12:29 33° WSW 08:17:01 10° NW visible
16 Sep 4.8 17:43:00 10° NE 17:47:38 36° ESE 17:52:20 10° S visible
17 Sep 3.2 07:30:46 10° S 07:35:55 73° WSW 07:41:00 10° NNW visible
17 Sep 5.9 17:07:56 10° ENE 17:11:15 18° ESE 17:14:34 10° SSE visible
18 Sep 3.2 06:54:07 10° SSE 06:59:08 51° E 07:04:05 10° N visible
18 Sep 5.6 08:34:06 10° SSW 08:37:45 20° WSW 08:41:23 10° WNW visible
19 Sep 4.3 07:56:30 10° S 08:01:19 41° WSW 08:06:05 10° NW visible
19 Sep 5.3 17:32:07 10° NE 17:36:28 29° ESE 17:40:52 10° S visible
20 Sep 3.0 07:19:29 10° SSE 07:24:41 89° ENE 07:29:47 10° NNW visible
20 Sep 6.2 09:01:08 10° SW 09:02:54 12° WSW 09:04:39 10° W visible
20 Sep 6.1 16:57:32 10° E 17:00:08 14° ESE 17:02:45 10° SSE visible
21 Sep 3.4 06:43:00 10° SSE 06:47:50 40° E 06:52:36 10° NNE visible
21 Sep 5.3 08:22:31 10° SSW 08:26:37 25° WSW 08:30:41 10° WNW visible
22 Sep 3.9 07:45:07 10° S 07:50:07 52° WSW 07:55:03 10° NNW visible
22 Sep 5.7 17:21:19 10° ENE 17:25:19 24° ESE 17:29:20 10° SSE visible
23 Sep 2.9 07:08:15 10° SSE 07:13:25 71° ENE 07:18:30 10° N visible
23 Sep 6.0 08:49:02 10° SSW 08:51:48 15° WSW 08:54:34 10° W visible
23 Sep 6.4 16:47:36 10° ESE 16:49:03 11° ESE 16:50:31 10° SE visible
24 Sep 3.7 06:31:57 10° SSE 06:36:31 31° E 06:41:01 10° NNE visible
24 Sep 4.9 08:11:00 10° S 08:15:27 30° WSW 08:19:52 10° NW visible
